Weather History for Asheville, NC

Change the Weather History Date:

Saturday, September 25, 2010

  Actual Average Record
Temperature  
Mean Temperature 71 °F 63 °F  
Max Temperature 84 °F 74 °F 89 °F (1895)
Min Temperature 57 °F 52 °F 36 °F (1983)
Degree Days  
Heating Degree Days 0 3  
Month to date heating degree days 2 32  
Since 1 July heating degree days 2 34  
Cooling Degree Days 6 2  
Month to date cooling degree days 128 90  
Year to date cooling degree days 1205 847  
Growing Degree Days 22 (Base 50)    
Moisture  
Dew Point 63 °F    
Average Humidity 73    
Maximum Humidity 97    
Minimum Humidity 48    
Precipitation  
Precipitation 0.88 in 0.12 in 1.93 in (1956)
Month to date precipitation 1.87 3.22  
Year to date precipitation 32.29 34.83  
Snow  
Snow 0.00 in 0.00 in 0.00 in ()
Month to date snowfall 0.0 0.0  
Since 1 July snowfall 0.0 0.0  
Since 1 September snowfall 0.0 0.0  
Snow Depth 0.00 in    
Sea Level Pressure  
Sea Level Pressure 30.01 in    
Wind  
Wind Speed 4 mph (NNW)    
Max Wind Speed 23 mph    
Max Gust Speed 28 mph    
Visibility 8 miles    
Events Fog , Rain , Thunderstorm    
T = Trace of Precipitation, MM = Missing Value Source: NWS Daily Summary

Daily Weather History Graph

Daily Weather History Graph

Search for Another Location

Airport:

Trip Planner

Search our weather history database for the weather conditions in past years. The results will help you decide how hot, cold, wet, or windy it might be!

Date:

Astronomy

Sep. 25, 2010 Rise Set
Actual Time 7:20 AM EDT 7:22 PM EDT
Civil Twilight 6:54 AM EDT 7:47 PM EDT
Nautical Twilight 6:25 AM EDT 8:17 PM EDT
Astronomical Twilight 5:55 AM EDT 8:47 PM EDT
Moon 8:16 PM EDT (9/25) 9:26 AM EDT (9/25)
Length of Visible Light 12h 53m
Length of Day
12h 02m
Waning Gibbous, 95% of the Moon is Illuminated
Sep 25
Waning Gibbous
Sep 30
Last Quarter
Oct 7
New
Oct 14
First Quarter
Oct 22
Full

Hourly Weather History & Observations

Time (EDT) Temp. Heat Index Dew Point Humidity Pressure Visibility Wind Dir Wind Speed Gust Speed Precip Events Conditions
12:54 AM 64.0 °F - 60.1 °F 87% 30.09 in 10.0 mi Calm Calm - N/A   Clear
1:54 AM 60.1 °F - 59.0 °F 96% 30.08 in 10.0 mi Calm Calm - N/A   Clear
2:54 AM 60.1 °F - 59.0 °F 96% 30.07 in 10.0 mi Calm Calm - N/A   Clear
3:54 AM 60.1 °F - 57.9 °F 93% 30.06 in 10.0 mi Calm Calm - N/A   Clear
4:54 AM 60.1 °F - 57.9 °F 93% 30.05 in 10.0 mi Calm Calm - N/A   Clear
5:54 AM 59.0 °F - 57.0 °F 93% 30.05 in 10.0 mi NW 3.5 mph - N/A   Clear
6:54 AM 59.0 °F - 57.9 °F 96% 30.05 in 10.0 mi NW 3.5 mph - N/A   Clear
7:54 AM 59.0 °F - 57.9 °F 96% 30.06 in 9.0 mi Calm Calm - N/A   Clear
8:54 AM 64.9 °F - 60.1 °F 84% 30.05 in 10.0 mi NNW 5.8 mph - N/A   Clear
9:54 AM 71.1 °F - 60.1 °F 68% 30.04 in 10.0 mi North 5.8 mph - N/A   Clear
10:54 AM 75.9 °F - 61.0 °F 60% 30.04 in 10.0 mi North 9.2 mph - N/A   Clear
11:54 AM 78.1 °F - 61.0 °F 56% 30.03 in 10.0 mi NNW 6.9 mph - N/A   Mostly Cloudy
12:54 PM 79.0 °F - 62.1 °F 56% 30.01 in 10.0 mi North 3.5 mph - N/A   Mostly Cloudy
1:54 PM 82.0 °F 83.1 °F 63.0 °F 52% 29.99 in 10.0 mi NNW 6.9 mph - N/A   Partly Cloudy
2:54 PM 81.0 °F 81.9 °F 62.1 °F 52% 29.95 in 10.0 mi Calm Calm - N/A   Mostly Cloudy
3:54 PM 84.0 °F 84.9 °F 63.0 °F 49% 29.93 in 10.0 mi NNW 9.2 mph - N/A   Mostly Cloudy
4:54 PM 72.0 °F - 64.9 °F 78% 29.95 in 10.0 mi NW 13.8 mph - 0.00 in   Mostly Cloudy
5:08 PM 69.8 °F - 66.2 °F 88% 30.02 in 1.8 mi NW 12.7 mph - 0.03 in Rain Heavy Rain
5:13 PM 68.0 °F - 66.2 °F 94% 30.02 in 0.8 mi NW 17.3 mph - 0.11 in Rain Heavy Rain
5:15 PM 68.0 °F - 66.2 °F 94% 30.02 in 0.8 mi NNW 17.3 mph - 0.18 in Rain , Thunderstorm Heavy Thunderstorms and Rain
5:18 PM 68.0 °F - 66.2 °F 94% 30.02 in 0.5 mi North 16.1 mph - 0.32 in Fog , Rain , Thunderstorm Heavy Thunderstorms and Rain
5:21 PM 68.0 °F - 66.2 °F 94% 30.01 in 3.0 mi North 11.5 mph - 0.45 in Rain , Thunderstorm Thunderstorms and Rain
5:34 PM 69.8 °F - 66.2 °F 88% 30.01 in 3.0 mi North 10.4 mph - 0.62 in Rain Light Rain
5:36 PM 69.8 °F - 66.2 °F 88% 30.01 in 10.0 mi North 10.4 mph - 0.62 in   Overcast
5:49 PM 69.8 °F - 66.2 °F 88% 30.01 in 10.0 mi North 9.2 mph - 0.62 in   Overcast
5:54 PM 70.0 °F - 66.0 °F 87% 29.96 in 10.0 mi NNW 8.1 mph - 0.62 in   Overcast
5:56 PM 69.8 °F - 66.2 °F 88% 30.02 in 2.5 mi NNW 9.2 mph - 0.02 in Rain Heavy Rain
5:59 PM 69.8 °F - 66.2 °F 88% 30.02 in 1.2 mi WNW 5.8 mph - 0.06 in Rain Heavy Rain
6:04 PM 69.8 °F - 66.2 °F 88% 30.02 in 0.8 mi NNW 5.8 mph - 0.16 in Rain Heavy Rain
6:09 PM 69.8 °F - 66.2 °F 88% 30.02 in 5.0 mi NNW 4.6 mph - 0.21 in Rain Rain
6:38 PM 69.8 °F - 66.2 °F 88% 30.01 in 10.0 mi North 3.5 mph - 0.25 in Rain Light Rain
6:54 PM 70.0 °F - 66.0 °F 87% 29.96 in 10.0 mi North 3.5 mph - 0.25 in   Mostly Cloudy
7:54 PM 66.9 °F - 63.0 °F 87% 29.96 in 10.0 mi NNW 9.2 mph - N/A   Mostly Cloudy
8:54 PM 66.9 °F - 63.0 °F 87% 29.96 in 10.0 mi NNW 6.9 mph - N/A   Mostly Cloudy
9:54 PM 66.0 °F - 63.0 °F 90% 29.94 in 10.0 mi Calm Calm - N/A   Scattered Clouds
10:54 PM 66.9 °F - 63.0 °F 87% 29.94 in 10.0 mi Calm Calm - N/A   Mostly Cloudy
11:54 PM 66.0 °F - 63.0 °F 90% 29.93 in 8.0 mi Calm Calm - 0.01 in Rain Light Rain